Other Surface Observations
Issued by NWS

Home | Current Version | Previous Version | Text Only | Print | Product List | Glossary On
Versions: 1 2 3 4 5 6 7 8 9 10 11 12 13 14 15 16 17 18 19 20 21 22 23 24 25 26 27 28 29 30 31 32 33 34 35 36 37 38 39 40 41 42 43 44 45 46 47 48 49 50
153
SXUS52 KTAE 200418
OSOTAE
OSOTAE
North Florida/South Alabama/Southwest Georgia Weather Roundup
National Weather Service Tallahassee Florida
1100 PM EST THU JAN 19 2017

Note: "fair" indicates few or no clouds below 12,000 feet with no
significant weather and/or obstructions to visibility.

!FLZ017-115-028-034-025-200500
...North Florida...

CITY           SKY/WX    TMP DP  RH WIND       PRES   REMARKS
TALLAHASSEE    CLOUDY    65  64  97 CALM      29.95R
APALACHICOLA   CLOUDY    68  68 100 SE5       29.94R
PERRY          CLOUDY    64  63  97 CALM      29.96R
CROSS CITY     CLOUDY    59  57  94 CALM      29.96F FOG
JACKSONVILLE   CLOUDY    65  62  90 S6        29.97S
$$

!FLZ112-006-005-002-011-200500
...Florida Panhandle...

CITY           SKY/WX    TMP DP  RH WIND       PRES   REMARKS
MARIANNA       LGT RAIN  68  67  96 S6        29.91R
BONIFAY        LGT RAIN  68  68 100 S6        29.92R
PANAMA CITY NW RAIN      69  67  93 SE7       29.90S
TYNDALL AFB    CLOUDY    70  68  94 SE10      29.91S
TYND DRONE APT LGT RAIN  70  68  94 SE13      29.91S
DE FUNIAK SPR  RAIN      67  67 100 S8        29.91R
EGLIN AFB      TSTM      69  67  94 S12       29.90R VSB 1
DESTIN         TSTM      70  68  93 SW5       29.91R FOG
HURLBURT       RAIN      66  56  70 W6        29.88F
CRESTVIEW      RAIN      67  65  93 CALM      29.90S FOG
PENSACOLA      LGT RAIN  66  64  93 SE9       29.84F
$$

!ALZ063-066-200500
...South Alabama...

CITY           SKY/WX    TMP DP  RH WIND       PRES   REMARKS
DOTHAN         RAIN      67  67 100 S8        29.95R
OZARK CAIRNS   LGT RAIN  68  66  94 SW6       29.90R
FT RUCKER HELI CLOUDY    68  65  90 SW5       29.90R
RUCKER HELI 3  NOT AVBL
RUCKER HELI 2  HVY RAIN  68  66  93 SE6       29.90S FOG
FLORALA APT    LGT RAIN  68  64  87 SW6       29.91F
ANDALUSIA      LGT RAIN  67  63  87 S5        29.89F
TROY           RAIN      66  66 100 S9        29.90F FOG
EUFALA         RAIN      67  64  90 S5        29.90R FOG
MOBILE         CLOUDY    64  63  96 SW3       29.86R
$$

!GAZ120>161-200500
...Southwest and South Central Georgia...

CITY           SKY/WX    TMP DP  RH WIND       PRES   REMARKS
THOMASVILLE    MOCLDY    64  64 100 CALM      29.95F
BAINBRIDGE     CLOUDY    68  64  88 S6        29.94R
MOODY AFB      CLOUDY    61  61  99 S5        29.95R
VALDOSTA       CLOUDY    62  62 100 S5        29.96R
MOULTRIE       CLOUDY    64  63  94 S3        29.96S
BLAKELY        LGT RAIN  70  64  83 S6        29.93R
ALBANY         MOCLDY    67  64  90 S8        29.95S
TIFTON         FAIR      64  64 100 S6        29.95S
FITZGERALD     FAIR      66  64  91 SW6       29.97S
CORDELE        FAIR      69  64  82 SW9       29.95R
AMERICUS       MOCLDY    66  59  77 S7        29.94R
HOMERVILLE     FAIR      64  63  94 CALM      29.97R
$$

!GMZ750-755-770-775-200500
...Coastal and Buoy Obs...

STATION/POSITION TIME  TEMP    WIND        PRES    VSBY  WAVE
                       AIR SEA DIR/SP/G                  HT/PER
                 (UTC) (F)     (DEG/KT/KT) (MB)    (MI)  (FT/S)
KEATON BEACH     0400   67     170/ 12/ 13 1013.7F
CEDAR KEY        0400   66     180/  8/ 10 1014.9F
C TOWER          0400   71     180/ 13/ 13 1014.3R
APALACHICOLA BUO 0350   74 73  200/ 12/ 14 1013.6R         2/ 4
PANAMA CITY BUOY 0350   75 75              1012.7R         4/ 5
MOBILE BUOY      NOT AVBL
ORANGE BCH AL BU 0350   66 66  150/ 10/ 12 1010.6F         3/ 5
$$




USA.gov is the U.S. government's official web portal to all federal, state and local government web resources and services.